カタログに戻る

COSMOS 1275 DEB

運用中PO
NORAD 42198·DEBRIS·🇷🇺 Russia

打ち上げ Jun 4, 1981 から Plesetsk Cosmodrome

Loading…

次のパス (今後24時間)

TLE

最新Source: Space-Track

元期: Sep 14, 2026, 03:55 UTC

1 42198U 81053TN  26257.16322442  .00000755  00000-0  58258-3 0  9995
2 42198  82.8026 207.9632 0042504 103.0297 257.5618 13.91218153649072

AllMySatでCOSMOS 1275 DEBをリアルタイム追跡

Download on the App Store